Regional Weather Roundup
Issued by NWS

Home | Current Version | Previous Version | Text Only | Print | Product List | Glossary Off
Versions: 1 2 3 4 5 6 7 8 9 10 11 12 13 14 15 16 17 18 19 20 21 22 23 24 25 26 27 28 29 30 31 32 33 34 35 36 37 38 39 40 41 42 43 44 45 46 47 48 49 50

347
ASUS45 KCYS 161810
RWRWY

WYOMING REGIONAL WEATHER ROUNDUP
NATIONAL WEATHER SERVICE CHEYENNE WY
1100 AM MST MON JAN 16 2017

NOTE:  "FAIR" INDICATES FEW OR NO CLOUDS BELOW 12,000 FEET
WITH NO SIGNIFICANT WEATHER AND/OR OBSTRUCTIONS TO VISIBILITY.

WYZ001-161900-
YELLOWSTONE NATIONAL PARK

CITY           SKY/WX    TMP DP  RH WIND       PRES   REMARKS
LK YELLOWSTONE   N/A     -5  -9  83 CALM      30.20S
6HR MIN TEMP: -22; 6HR MAX TEMP:  -5;

W YELLOWSTONE  NOT AVBL

$$
WYZ002>013-054>058-071-098>099-161900-
NORTHERN WYOMING

CITY           SKY/WX    TMP DP  RH WIND       PRES   REMARKS
JACKSON        SUNNY     -6  -8  92 CALM      30.28R
CODY           FAIR      27   6  41 CALM      30.16F
GREYBULL       FLURRIES  -5 -14  65 CALM      30.27S
6HR MIN TEMP: -20; 6HR MAX TEMP:  -5; 6HR PCP: TRACE;

WORLAND        FAIR      -1  -5  82 SW5       30.22F WCI -11
6HR MIN TEMP: -16; 6HR MAX TEMP:  -1; 6HR PCP: TRACE;

SHERIDAN       FAIR      24   8  50 S6        30.15F WCI  17
6HR MIN TEMP:   7; 6HR MAX TEMP:  25;

BUFFALO        FAIR      28   6  39 S3        30.13F
6HR MIN TEMP:  18; 6HR MAX TEMP:  30;

GILLETTE       FAIR      30  13  49 W10       30.13F WCI  21
6HR MIN TEMP:  10; 6HR MAX TEMP:  30;

HULETT         FAIR      28  14  54 SW5       30.13F WCI  23
NEWCASTLE      FAIR      27  14  59 W13       30.11F WCI  16

$$
WYZ014>020-022>026-101>103-161900-
CENTRAL WYOMING

CITY           SKY/WX    TMP DP  RH WIND       PRES   REMARKS
BIG PINEY      FAIR      -8  -8 100 CALM      30.20S
6HR MIN TEMP: -27; 6HR MAX TEMP:  -8; 6HR PCP: TRACE;

PINEDALE       FAIR      -6  -9  84 NW3       30.20R
DUBOIS         NOT AVBL
LANDER         FAIR      10   4  76 N3        30.18S
6HR MIN TEMP:  -1; 6HR MAX TEMP:  10;

RIVERTON       FAIR       6   2  83 CALM      30.20S
6HR MIN TEMP:  -9; 6HR MAX TEMP:   6;

CASPER         FAIR      25  13  60 SW10      30.17S WCI  15
6HR MIN TEMP:   5; 6HR MAX TEMP:  25;

DOUGLAS        FAIR      32  10  40 NW16      30.15F WCI  21
6HR MIN TEMP:  16; 6HR MAX TEMP:  32;


$$
WYZ021-027>030-104>119-161900-
SOUTHERN WYOMING

CITY           SKY/WX    TMP DP  RH WIND       PRES   REMARKS
EVANSTON       FAIR       4   3  96 CALM      30.18S
6HR MIN TEMP:  -4; 6HR MAX TEMP:   5;

ROCK SPRINGS   FAIR      -2  -7  79 SW8       30.20S HAZE    WCI -17
6HR MIN TEMP:  -9; 6HR MAX TEMP:  -2;

RAWLINS        FAIR      13   6  74 CALM      30.15R
6HR MIN TEMP:  -3; 6HR MAX TEMP:  13;

LARAMIE        CLOUDY    22  18  85 CALM      30.09R
6HR MIN TEMP:  19; 6HR MAX TEMP:  22;

CHEYENNE       CLOUDY    34  13  41 N17G23    30.07R WCI  23
6HR MIN TEMP:  30; 6HR MAX TEMP:  34;

TORRINGTON     CLOUDY    36  11  35 NW9       30.11R WCI  29
6HR MIN TEMP:  32; 6HR MAX TEMP:  37;


$$




USA.gov is the U.S. government's official web portal to all federal, state and local government web resources and services.